KC9S Weather Reports


Display with metric or nautical units.
time (UTC)temp
F
wind
direction
speed
MPH
gust
MPH
rain 1hr
in
rain 24hr
in
rain mn
in
humidity
%
barometer
mb
20260504050017 59 180 2.0 4.0 0.01 0.01 0.01 75 1008.0
20260504045017 60 158 3.0 6.0 0.01 0.01 0.01 72 1008.5
20260504044037 61 225 3.0 9.0 0.00 0.00 0.00 67 1009.0
20260504043018 61 203 2.0 4.0 0.00 0.00 0.00 67 1008.6
20260504042017 61 203 2.0 5.0 0.00 0.00 0.00 67 1008.7
20260504041016 61 203 2.0 5.0 0.00 0.00 0.00 65 1008.7
20260504040017 61 180 2.0 10.0 0.00 0.00 0.00 64 1008.6
20260504035017 62 203 3.0 13.0 0.00 0.00 0.00 64 1008.8
20260504034017 62 203 3.0 9.0 0.00 0.00 0.00 63 1008.4
20260504033038 62 203 3.0 12.0 0.00 0.00 0.00 64 1008.4
20260504032017 62 225 2.0 8.0 0.00 0.00 0.00 64 1008.4
20260504031037 62 203 3.0 10.0 0.00 0.00 0.00 65 1009.0
20260504030017 62 180 3.0 10.0 0.00 0.00 0.00 64 1009.2
20260504025017 62 180 2.0 7.0 0.00 0.00 0.00 64 1008.9
20260504024017 63 203 2.0 9.0 0.00 0.00 0.00 63 1008.9
20260504023017 62 158 2.0 10.0 0.00 0.00 0.00 63 1008.4
20260504022016 62 180 4.0 8.0 0.00 0.00 0.00 63 1008.6
20260504021017 62 203 3.0 6.0 0.00 0.00 0.00 64 1009.0
20260504020017 62 180 3.0 9.0 0.00 0.00 0.00 64 1008.6
20260504015016 62 180 4.0 12.0 0.00 0.00 0.00 63 1008.6
20260504014017 63 180 3.0 14.0 0.00 0.00 0.00 63 1009.2
20260504013038 64 203 4.0 11.0 0.00 0.00 0.00 57 1008.8
20260504012017 64 203 4.0 15.0 0.00 0.00 0.00 56 1008.0
20260504011037 65 180 3.0 11.0 0.00 0.00 0.00 55 1008.3
20260504010016 65 203 4.0 12.0 0.00 0.00 0.00 55 1008.0
20260504005016 66 225 5.0 20.0 0.00 0.00 0.00 52 1008.3
20260504004017 66 203 2.0 14.0 0.00 0.00 0.00 53 1008.5
20260504003016 66 180 2.0 8.0 0.00 0.00 0.00 52 1008.5
20260504002016 66 180 3.0 10.0 0.00 0.00 0.00 51 1008.1
20260504001016 66 180 2.0 8.0 0.00 0.00 0.00 52 1008.6
20260504000037 67 203 2.0 6.0 0.00 0.00 0.00 50 1008.6
20260503235017 67 180 3.0 9.0 0.00 0.00 0.00 49 1008.6
20260503234017 67 203 3.0 10.0 0.00 0.00 0.00 50 1008.7
20260503233016 67 158 3.0 18.0 0.00 0.00 0.00 49 1009.0
20260503232016 67 180 3.0 9.0 0.00 0.00 0.00 49 1009.3
20260503231016 68 225 2.0 6.0 0.00 0.00 0.00 48 1009.7
20260503230017 68 203 3.0 11.0 0.00 0.00 0.00 47 1009.6
20260503225017 68 180 3.0 8.0 0.00 0.00 0.00 48 1009.5
20260503224016 68 203 3.0 16.0 0.00 0.00 0.00 47 1009.7
20260503223016 68 225 4.0 12.0 0.00 0.00 0.00 49 1009.4
20260503222057 68 203 4.0 19.0 0.00 0.00 0.00 47 1009.4
20260503221037 68 180 3.0 10.0 0.00 0.00 0.00 46 1009.6
20260503220036 67 225 5.0 15.0 0.00 0.00 0.00 48 1009.8
20260503215017 67 203 4.0 13.0 0.00 0.00 0.00 47 1010.1
20260503214057 67 203 3.0 12.0 0.00 0.00 0.00 48 1010.1
20260503213017 67 203 4.0 13.0 0.00 0.00 0.00 47 1010.2
20260503212016 67 203 5.0 19.0 0.00 0.00 0.00 48 1010.1
20260503211016 66 180 5.0 22.0 0.00 0.00 0.00 49 1009.9
20260503210058 67 203 5.0 17.0 0.00 0.00 0.00 48 1010.0
20260503205016 66 203 4.0 14.0 0.00 0.00 0.00 49 1010.0
20260503204037 65 180 4.0 13.0 0.00 0.00 0.00 52 1010.0
20260503203017 64 180 7.0 17.0 0.00 0.00 0.00 50 1009.8
20260503202036 65 180 5.0 19.0 0.00 0.00 0.00 50 1010.2
20260503201037 64 203 5.0 13.0 0.00 0.00 0.00 51 1010.5
20260503200017 64 180 5.0 15.0 0.00 0.00 0.00 52 1011.1
20260503195016 63 203 4.0 10.0 0.00 0.00 0.00 52 1011.4
20260503194016 63 203 3.0 14.0 0.00 0.00 0.00 57 1011.8
20260503193016 62 203 4.0 12.0 0.00 0.00 0.00 55 1012.0
20260503192016 62 180 4.0 13.0 0.00 0.00 0.00 55 1012.3
20260503191016 61 203 5.0 24.0 0.00 0.00 0.00 55 1012.5
20260503190016 61 203 3.0 10.0 0.00 0.00 0.00 54 1012.8
20260503185016 61 225 4.0 14.0 0.00 0.00 0.00 55 1013.2
20260503184016 61 203 4.0 16.0 0.00 0.00 0.00 54 1013.2
20260503183016 62 203 4.0 16.0 0.00 0.00 0.00 55 1013.1
20260503182036 62 203 4.0 14.0 0.00 0.00 0.00 55 1013.3
20260503181057 62 203 4.0 12.0 0.00 0.00 0.00 52 1013.5
20260503180016 62 180 4.0 12.0 0.00 0.00 0.00 54 1014.3
20260503175017 62 225 5.0 17.0 0.00 0.00 0.00 55 1014.5
20260503174016 63 203 4.0 10.0 0.00 0.00 0.00 51 1014.7
20260503173016 62 203 4.0 13.0 0.00 0.00 0.00 54 1014.8
20260503172016 63 225 4.0 14.0 0.00 0.00 0.00 53 1014.9
20260503171016 62 180 3.0 10.0 0.00 0.00 0.00 53 1014.8
20260503131037 50 203 3.0 8.0 0.00 0.00 0.00 77 1017.7
20260503081016 47 203 2.0 5.0 0.00 0.00 0.00 70 1017.8